QPF
0.00 0.00 0.00 0.00 0.00 0.01 0.01 0.00 0.00 0.00 0.00 0.00 0.00 0.01 0.01 0.00 0.00 0.01 0.01 0.01 0.01 0.02 0.02 0.02 0.01 0.02 0.03 0.03 0.04 0.05 0.06 0.06 0.06 0.06 0.05 0.06 0.05 0.04 0.02 0.02 0.02 0.04 0.04 0.05
0.00 0.00 0.00 0.00 0.00 0.00 0.00 0.00 0.00 0.00 0.00 0.00 0.00 0.02 0.02 0.00 0.00 0.01 0.01 0.01 0.02 0.01 0.03 0.03 0.02 0.01 0.01 0.02 0.02 0.04 0.04 0.04 0.04 0.05 0.05 0.04 0.04 0.03 0.03 0.03 0.04 0.02 0.04 0.05
0.00 0.00 0.00 0.00 0.00 0.00 0.00 0.00 0.00 0.00 0.00 0.00 0.00 0.04 0.06 0.01 0.00 0.00 0.00 0.01 0.01 0.01 0.02 0.03 0.03 0.03 0.03 0.04 0.04 0.04 0.04 0.06 0.06 0.06 0.05 0.05 0.05 0.06 0.07 0.08 0.07 0.06 0.05 0.04
0.00 0.00 0.00 0.00 0.00 0.00 0.00 0.00 0.00 0.00 0.00 0.00 0.00 0.05 0.09 0.03 0.01 0.01 0.00 0.00 0.01 0.01 0.04 0.04 0.03 0.03 0.03 0.03 0.04 0.05 0.06 0.07 0.08 0.06 0.06 0.05 0.07 0.08 0.09 0.09 0.08 0.07 0.06 0.05
0.00 0.00 0.00 0.00 0.00 0.00 0.00 0.00 0.00 0.00 0.00 0.00 0.00 0.01 0.04 0.04 0.03 0.03 0.01 0.01 0.02 0.02 0.02 0.02 0.02 0.02 0.02 0.03 0.03 0.05 0.06 0.08 0.12 0.08 0.07 0.07 0.07 0.08 0.09 0.08 0.07 0.07 0.06 0.07
0.00 0.00 0.00 0.00 0.00 0.00 0.00 0.00 0.01 0.01 0.00 0.01 0.00 0.01 0.03 0.05 0.03 0.02 0.01 0.01 0.02 0.05 0.03 0.01 0.01 0.02 0.01 0.01 0.02 0.05 0.11 0.12 0.10 0.10 0.10 0.09 0.08 0.08 0.09 0.11 0.12 0.11 0.11 0.12
0.00 0.00 0.00 0.00 0.00 0.00 0.00 0.01 0.04 0.05 0.02 0.01 0.01 0.02 0.03 0.03 0.02 0.02 0.03 0.03 0.01 0.01 0.01 0.01 0.02 0.03 0.02 0.02 0.03 0.03 0.03 0.04 0.04 0.06 0.09 0.08 0.08 0.09 0.10 0.11 0.12 0.12 0.13 0.16
0.00 0.00 0.00 0.00 0.00 0.00 0.00 0.01 0.03 0.05 0.05 0.03 0.02 0.02 0.03 0.02 0.03 0.02 0.01 0.03 0.01 0.01 0.01 0.01 0.04 0.04 0.02 0.01 0.01 0.01 0.02 0.02 0.02 0.03 0.04 0.04 0.05 0.06 0.06 0.07 0.08 0.07 0.08 0.08
0.00 0.00 0.00 0.00 0.00 0.00 0.00 0.00 0.01 0.01 0.01 0.02 0.02 0.02 0.01 0.01 0.01 0.01 0.01 0.01 0.01 0.01 0.00 0.01 0.01 0.01 0.01 0.01 0.01 0.01 0.01 0.02 0.03 0.04 0.04 0.04 0.03 0.03 0.03 0.04 0.04 0.05 0.05 0.04
0.00 0.00 0.00 0.00 0.00 0.00 0.00 0.00 0.00 0.00 0.01 0.02 0.01 0.01 0.03 0.06 0.04 0.02 0.01 0.00 0.01 0.00 0.01 0.01 0.01 0.01 0.01 0.01 0.01 0.01 0.01 0.02 0.02 0.04 0.05 0.06 0.04 0.03 0.02 0.02 0.03 0.05 0.05 0.04
0.00 0.00 0.00 0.00 0.00 0.00 0.00 0.00 0.00 0.00 0.00 0.01 0.02 0.01 0.02 0.05 0.04 0.02 0.01 0.00 0.00 0.00 0.01 0.01 0.01 0.01 0.01 0.01 0.01 0.01 0.01 0.02 0.02 0.03 0.03 0.04 0.04 0.04 0.04 0.03 0.03 0.04 0.05 0.06
0.00 0.00 0.00 0.00 0.00 0.00 0.00 0.00 0.00 0.00 0.00 0.00 0.00 0.01 0.01 0.02 0.02 0.01 0.01 0.01 0.00 0.01 0.01 0.01 0.01 0.01 0.00 0.01 0.01 0.02 0.03 0.03 0.02 0.02 0.02 0.03 0.03 0.04 0.03 0.03 0.03 0.03 0.03 0.03
0.00 0.00 0.00 0.00 0.00 0.00 0.00 0.00 0.00 0.00 0.00 0.00 0.00 0.01 0.00 0.00 0.01 0.02 0.01 0.01 0.00 0.01 0.01 0.01 0.01 0.01 0.01 0.01 0.01 0.01 0.02 0.03 0.03 0.02 0.02 0.03 0.03 0.02 0.02 0.03 0.03 0.03 0.04 0.03
0.00 0.00 0.01 0.01 0.01 0.00 0.00 0.00 0.00 0.00 0.00 0.00 0.00 0.01 0.00 0.00 0.01 0.01 0.00 0.00 0.00 0.00 0.01 0.01 0.02 0.02 0.01 0.01 0.01 0.01 0.02 0.02 0.01 0.01 0.02 0.02 0.02 0.02 0.02 0.02 0.02 0.03 0.03 0.03
0.00 0.00 0.00 0.00 0.01 0.00 0.00 0.00 0.00 0.00 0.00 0.00 0.00 0.01 0.01 0.00 0.00 0.00 0.00 0.00 0.01 0.01 0.01 0.01 0.01 0.03 0.01 0.01 0.01 0.01 0.01 0.02 0.01 0.01 0.01 0.01 0.02 0.02 0.02 0.03 0.03 0.03 0.03 0.02
0.00 0.00 0.00 0.00 0.00 0.00 0.00 0.00 0.01 0.00 0.00 0.00 0.00 0.01 0.01 0.01 0.00 0.00 0.00 0.00 0.00 0.00 0.01 0.01 0.01 0.01 0.01 0.01 0.00 0.00 0.00 0.01 0.01 0.01 0.01 0.01 0.02 0.02 0.02 0.03 0.03 0.03 0.03 0.02
0.00 0.00 0.00 0.00 0.00 0.00 0.01 0.01 0.01 0.00 0.01 0.01 0.01 0.01 0.00 0.00 0.00 0.00 0.00 0.00 0.01 0.01 0.00 0.01 0.01 0.01 0.01 0.00 0.00 0.00 0.00 0.00 0.01 0.02 0.02 0.02 0.02 0.02 0.02 0.01 0.02 0.02 0.02 0.02
0.00 0.00 0.00 0.00 0.00 0.00 0.01 0.03 0.02 0.02 0.02 0.03 0.03 0.02 0.01 0.01 0.00 0.00 0.00 0.00 0.00 0.01 0.00 0.00 0.01 0.01 0.01 0.01 0.00 0.00 0.00 0.01 0.01 0.03 0.03 0.02 0.02 0.02 0.02 0.02 0.02 0.02 0.03 0.02
0.00 0.01 0.01 0.00 0.00 0.01 0.02 0.02 0.01 0.01 0.04 0.04 0.03 0.01 0.00 0.00 0.00 0.00 0.00 0.00 0.00 0.00 0.00 0.00 0.00 0.01 0.01 0.01 0.01 0.01 0.01 0.01 0.01 0.03 0.03 0.03 0.03 0.03 0.03 0.03 0.03 0.03 0.03 0.02
0.01 0.01 0.01 0.01 0.01 0.03 0.05 0.01 0.00 0.00 0.01 0.01 0.00 0.00 0.00 0.00 0.01 0.01 0.01 0.01 0.00 0.00 0.00 0.00 0.00 0.01 0.01 0.01 0.02 0.01 0.01 0.01 0.01 0.01 0.02 0.02 0.03 0.03 0.03 0.02 0.02 0.02 0.02 0.03
0.01 0.01 0.01 0.01 0.01 0.01 0.01 0.00 0.00 0.01 0.01 0.01 0.00 0.00 0.01 0.01 0.01 0.01 0.01 0.00 0.01 0.01 0.01 0.00 0.00 0.01 0.01 0.01 0.02 0.02 0.01 0.01 0.01 0.02 0.02 0.02 0.03 0.03 0.03 0.03 0.03 0.03 0.03 0.03
0.02 0.02 0.01 0.01 0.01 0.01 0.00 0.00 0.01 0.01 0.01 0.01 0.01 0.01 0.01 0.01 0.01 0.01 0.01 0.00 0.00 0.00 0.01 0.01 0.01 0.01 0.02 0.02 0.02 0.03 0.02 0.02 0.03 0.04 0.05 0.04 0.04 0.04 0.04 0.05 0.04 0.04 0.04 0.04
0.04 0.03 0.02 0.01 0.01 0.01 0.01 0.01 0.01 0.01 0.01 0.01 0.01 0.01 0.02 0.02 0.01 0.01 0.01 0.00 0.00 0.00 0.00 0.00 0.01 0.01 0.02 0.02 0.02 0.03 0.03 0.02 0.01 0.02 0.03 0.03 0.04 0.05 0.06 0.07 0.07 0.07 0.08 0.06
0.03 0.02 0.02 0.02 0.01 0.01 0.01 0.01 0.01 0.00 0.01 0.01 0.01 0.02 0.02 0.02 0.02 0.01 0.01 0.01 0.01 0.00 0.00 0.00 0.01 0.01 0.01 0.01 0.01 0.02 0.02 0.02 0.01 0.01 0.02 0.03 0.03 0.03 0.04 0.05 0.05 0.06 0.07 0.07
0.03 0.02 0.01 0.01 0.01 0.01 0.01 0.01 0.00 0.00 0.00 0.01 0.00 0.01 0.01 0.01 0.01 0.01 0.01 0.01 0.01 0.01 0.01 0.00 0.01 0.02 0.02 0.02 0.02 0.02 0.01 0.02 0.02 0.02 0.03 0.04 0.03 0.04 0.05 0.06 0.07 0.07 0.07 0.06
0.01 0.01 0.02 0.02 0.02 0.03 0.02 0.01 0.01 0.00 0.01 0.01 0.01 0.00 0.00 0.01 0.01 0.01 0.01 0.01 0.01 0.01 0.01 0.01 0.01 0.02 0.02 0.02 0.02 0.02 0.02 0.02 0.03 0.03 0.03 0.03 0.04 0.04 0.05 0.06 0.07 0.08 0.07 0.07
MSLP
1004.30 1005.11 1005.72 1006.15 1006.42 1006.61 1006.77 1006.96 1007.20 1007.47 1007.74 1007.96 1008.09 1008.11 1008.03 1007.87 1007.69 1007.53 1007.43 1007.43 1007.53 1007.70 1007.92 1008.15 1008.38 1008.59 1008.78 1008.98 1009.20 1009.46 1009.77 1010.11 1010.47 1010.81 1011.10 1011.33 1011.49 1011.58 1011.63 1011.67 1011.73 1011.82 1011.95 1012.13
1005.01 1005.60 1005.98 1006.19 1006.29 1006.38 1006.51 1006.74 1007.05 1007.43 1007.79 1008.07 1008.22 1008.19 1008.01 1007.71 1007.37 1007.06 1006.85 1006.78 1006.84 1007.03 1007.31 1007.61 1007.90 1008.16 1008.38 1008.59 1008.80 1009.04 1009.33 1009.67 1010.03 1010.39 1010.71 1010.96 1011.14 1011.23 1011.27 1011.29 1011.32 1011.40 1011.53 1011.72
1005.54 1005.86 1005.98 1005.97 1005.91 1005.92 1006.07 1006.38 1006.83 1007.36 1007.86 1008.23 1008.40 1008.33 1008.04 1007.59 1007.07 1006.58 1006.21 1006.03 1006.03 1006.22 1006.52 1006.89 1007.25 1007.57 1007.85 1008.08 1008.31 1008.56 1008.86 1009.21 1009.60 1009.98 1010.34 1010.62 1010.81 1010.91 1010.94 1010.93 1010.93 1010.98 1011.10 1011.30
1005.90 1005.96 1005.83 1005.61 1005.44 1005.41 1005.60 1006.03 1006.65 1007.35 1008.00 1008.48 1008.69 1008.58 1008.18 1007.55 1006.83 1006.14 1005.59 1005.25 1005.17 1005.31 1005.62 1006.02 1006.44 1006.82 1007.16 1007.44 1007.71 1008.00 1008.32 1008.71 1009.13 1009.56 1009.96 1010.28 1010.49 1010.60 1010.62 1010.59 1010.56 1010.58 1010.68 1010.87
1006.16 1006.00 1005.66 1005.30 1005.04 1005.02 1005.28 1005.85 1006.64 1007.51 1008.31 1008.87 1009.10 1008.94 1008.42 1007.62 1006.69 1005.78 1005.03 1004.53 1004.32 1004.38 1004.66 1005.07 1005.52 1005.95 1006.33 1006.67 1006.98 1007.30 1007.67 1008.10 1008.58 1009.07 1009.52 1009.89 1010.14 1010.27 1010.29 1010.25 1010.19 1010.18 1010.25 1010.44
1006.43 1006.11 1005.64 1005.19 1004.91 1004.91 1005.27 1005.96 1006.89 1007.89 1008.79 1009.41 1009.64 1009.41 1008.77 1007.80 1006.67 1005.56 1004.61 1003.93 1003.57 1003.53 1003.74 1004.11 1004.55 1004.99 1005.40 1005.76 1006.10 1006.45 1006.87 1007.35 1007.88 1008.43 1008.95 1009.39 1009.70 1009.87 1009.91 1009.86 1009.79 1009.76 1009.81 1009.98
1006.77 1006.36 1005.85 1005.39 1005.13 1005.19 1005.62 1006.40 1007.41 1008.48 1009.42 1010.05 1010.23 1009.93 1009.17 1008.05 1006.76 1005.47 1004.34 1003.50 1002.99 1002.82 1002.93 1003.23 1003.61 1004.02 1004.40 1004.74 1005.09 1005.46 1005.90 1006.41 1007.00 1007.62 1008.22 1008.73 1009.11 1009.34 1009.42 1009.40 1009.33 1009.29 1009.33 1009.48
1007.15 1006.77 1006.30 1005.89 1005.68 1005.80 1006.29 1007.10 1008.13 1009.20 1010.10 1010.67 1010.79 1010.40 1009.54 1008.32 1006.91 1005.49 1004.23 1003.26 1002.62 1002.32 1002.31 1002.49 1002.77 1003.09 1003.40 1003.69 1004.00 1004.35 1004.79 1005.33 1005.96 1006.64 1007.31 1007.90 1008.37 1008.68 1008.82 1008.85 1008.81 1008.78 1008.81 1008.96
1007.51 1007.23 1006.87 1006.57 1006.46 1006.63 1007.14 1007.93 1008.90 1009.88 1010.69 1011.16 1011.18 1010.71 1009.78 1008.50 1007.04 1005.57 1004.25 1003.19 1002.46 1002.04 1001.90 1001.95 1002.10 1002.29 1002.49 1002.69 1002.92 1003.23 1003.64 1004.18 1004.83 1005.56 1006.29 1006.97 1007.52 1007.92 1008.14 1008.23 1008.24 1008.24 1008.29 1008.44
1007.72 1007.61 1007.42 1007.26 1007.25 1007.47 1007.96 1008.68 1009.53 1010.36 1011.02 1011.35 1011.28 1010.75 1009.80 1008.53 1007.10 1005.66 1004.35 1003.28 1002.49 1001.99 1001.73 1001.64 1001.65 1001.69 1001.76 1001.84 1001.97 1002.20 1002.57 1003.09 1003.74 1004.49 1005.28 1006.02 1006.66 1007.14 1007.45 1007.62 1007.69 1007.73 1007.80 1007.96
1007.67 1007.76 1007.76 1007.76 1007.86 1008.12 1008.56 1009.16 1009.85 1010.49 1010.97 1011.16 1010.99 1010.44 1009.53 1008.35 1007.02 1005.70 1004.48 1003.46 1002.68 1002.14 1001.79 1001.58 1001.45 1001.36 1001.28 1001.24 1001.27 1001.42 1001.73 1002.21 1002.85 1003.61 1004.42 1005.21 1005.91 1006.47 1006.86 1007.10 1007.23 1007.32 1007.41 1007.58
1007.30 1007.61 1007.81 1007.98 1008.17 1008.44 1008.82 1009.28 1009.77 1010.22 1010.51 1010.57 1010.34 1009.80 1008.98 1007.95 1006.80 1005.66 1004.60 1003.70 1002.98 1002.45 1002.05 1001.76 1001.52 1001.31 1001.12 1000.97 1000.92 1000.99 1001.24 1001.68 1002.29 1003.03 1003.85 1004.66 1005.39 1006.00 1006.44 1006.74 1006.93 1007.05 1007.17 1007.35
1006.70 1007.20 1007.58 1007.89 1008.16 1008.43 1008.73 1009.04 1009.35 1009.59 1009.71 1009.66 1009.40 1008.91 1008.22 1007.38 1006.47 1005.55 1004.71 1003.97 1003.36 1002.87 1002.48 1002.14 1001.83 1001.54 1001.27 1001.06 1000.94 1000.97 1001.17 1001.57 1002.14 1002.86 1003.65 1004.45 1005.18 1005.80 1006.27 1006.60 1006.82 1006.96 1007.09 1007.26
1006.00 1006.66 1007.19 1007.61 1007.94 1008.19 1008.39 1008.56 1008.68 1008.75 1008.72 1008.59 1008.31 1007.90 1007.37 1006.75 1006.08 1005.42 1004.80 1004.25 1003.78 1003.37 1003.01 1002.67 1002.34 1002.02 1001.73 1001.49 1001.35 1001.36 1001.54 1001.90 1002.44 1003.10 1003.84 1004.59 1005.29 1005.88 1006.34 1006.66 1006.88 1007.03 1007.16 1007.30
1005.40 1006.17 1006.81 1007.30 1007.64 1007.86 1007.97 1008.00 1007.96 1007.87 1007.73 1007.52 1007.26 1006.94 1006.56 1006.15 1005.72 1005.31 1004.91 1004.55 1004.22 1003.91 1003.61 1003.31 1003.00 1002.70 1002.42 1002.20 1002.08 1002.10 1002.27 1002.61 1003.10 1003.71 1004.37 1005.04 1005.66 1006.19 1006.60 1006.89 1007.08 1007.21 1007.31 1007.42
1005.07 1005.90 1006.59 1007.10 1007.44 1007.60 1007.62 1007.52 1007.34 1007.12 1006.88 1006.63 1006.38 1006.14 1005.91 1005.68 1005.46 1005.26 1005.06 1004.87 1004.67 1004.46 1004.24 1004.00 1003.74 1003.49 1003.26 1003.10 1003.03 1003.08 1003.27 1003.60 1004.04 1004.57 1005.14 1005.71 1006.22 1006.66 1006.98 1007.21 1007.35 1007.43 1007.50 1007.57
1005.08 1005.92 1006.61 1007.11 1007.41 1007.51 1007.43 1007.22 1006.93 1006.60 1006.28 1006.00 1005.76 1005.58 1005.46 1005.38 1005.33 1005.29 1005.25 1005.19 1005.11 1005.00 1004.86 1004.68 1004.50 1004.33 1004.19 1004.10 1004.10 1004.20 1004.41 1004.72 1005.12 1005.57 1006.03 1006.47 1006.87 1007.18 1007.41 1007.55 1007.63 1007.66 1007.68 1007.72
1005.38 1006.18 1006.83 1007.29 1007.53 1007.55 1007.39 1007.10 1006.71 1006.31 1005.93 1005.62 1005.39 1005.26 1005.21 1005.24 1005.30 1005.39 1005.46 1005.51 1005.53 1005.50 1005.43 1005.34 1005.24 1005.16 1005.11 1005.11 1005.19 1005.35 1005.58 1005.88 1006.22 1006.58 1006.93 1007.25 1007.51 1007.70 1007.82 1007.87 1007.88 1007.86 1007.85 1007.85
1005.79 1006.51 1007.09 1007.48 1007.65 1007.61 1007.39 1007.03 1006.59 1006.14 1005.73 1005.40 1005.19 1005.09 1005.10 1005.19 1005.34 1005.51 1005.67 1005.80 1005.89 1005.94 1005.95 1005.94 1005.93 1005.94 1005.98 1006.08 1006.23 1006.44 1006.69 1006.97 1007.26 1007.53 1007.77 1007.96 1008.10 1008.17 1008.19 1008.17 1008.12 1008.07 1008.03 1008.01
1006.06 1006.69 1007.18 1007.50 1007.61 1007.52 1007.26 1006.87 1006.41 1005.95 1005.54 1005.22 1005.03 1004.96 1005.02 1005.16 1005.37 1005.61 1005.83 1006.03 1006.19 1006.31 1006.40 1006.48 1006.56 1006.66 1006.80 1006.98 1007.20 1007.44 1007.71 1007.96 1008.20 1008.39 1008.54 1008.62 1008.64 1008.62 1008.55 1008.47 1008.38 1008.31 1008.26 1008.25
1006.01 1006.53 1006.93 1007.17 1007.24 1007.13 1006.86 1006.48 1006.05 1005.61 1005.24 1004.96 1004.81 1004.79 1004.89 1005.09 1005.35 1005.65 1005.94 1006.21 1006.44 1006.64 1006.82 1006.98 1007.15 1007.34 1007.56 1007.81 1008.08 1008.36 1008.63 1008.86 1009.05 1009.17 1009.23 1009.23 1009.16 1009.06 1008.93 1008.81 1008.70 1008.62 1008.58 1008.59
1005.52 1005.93 1006.24 1006.43 1006.48 1006.37 1006.14 1005.82 1005.44 1005.08 1004.78 1004.57 1004.48 1004.53 1004.69 1004.95 1005.28 1005.64 1006.00 1006.34 1006.66 1006.94 1007.21 1007.46 1007.72 1007.99 1008.28 1008.59 1008.90 1009.20 1009.47 1009.68 1009.82 1009.89 1009.88 1009.81 1009.68 1009.53 1009.36 1009.21 1009.10 1009.03 1009.02 1009.05
1004.63 1004.94 1005.19 1005.34 1005.39 1005.33 1005.16 1004.93 1004.66 1004.40 1004.20 1004.09 1004.09 1004.22 1004.45 1004.78 1005.18 1005.62 1006.06 1006.49 1006.89 1007.26 1007.62 1007.96 1008.29 1008.64 1008.98 1009.33 1009.67 1009.98 1010.23 1010.42 1010.53 1010.56 1010.51 1010.38 1010.21 1010.02 1009.84 1009.68 1009.57 1009.52 1009.53 1009.59
1003.53 1003.75 1003.94 1004.08 1004.16 1004.15 1004.08 1003.96 1003.82 1003.69 1003.62 1003.62 1003.73 1003.95 1004.27 1004.68 1005.15 1005.66 1006.18 1006.69 1007.18 1007.64 1008.08 1008.49 1008.89 1009.28 1009.67 1010.04 1010.39 1010.69 1010.93 1011.10 1011.18 1011.17 1011.09 1010.94 1010.74 1010.54 1010.34 1010.18 1010.07 1010.04 1010.06 1010.14
1002.43 1002.58 1002.74 1002.88 1003.00 1003.07 1003.11 1003.12 1003.11 1003.13 1003.19 1003.31 1003.53 1003.84 1004.25 1004.73 1005.28 1005.86 1006.45 1007.03 1007.59 1008.12 1008.61 1009.08 1009.52 1009.94 1010.33 1010.70 1011.04 1011.32 1011.54 1011.68 1011.74 1011.71 1011.60 1011.44 1011.23 1011.01 1010.81 1010.65 1010.55 1010.51 1010.54 1010.63
1001.58 1001.68 1001.82 1001.97 1002.14 1002.29 1002.44 1002.57 1002.70 1002.85 1003.03 1003.28 1003.60 1004.00 1004.48 1005.02 1005.63 1006.26 1006.91 1007.54 1008.14 1008.71 1009.24 1009.72 1010.17 1010.58 1010.96 1011.30 1011.60 1011.85 1012.03 1012.14 1012.18 1012.13 1012.01 1011.84 1011.64 1011.42 1011.21 1011.05 1010.94 1010.89 1010.90 1010.97
Thickness
5863 5850 5840 5847 5855 5852 5849 5845 5845 5854 5872 5862 5851 5846 5851 5857 5853 5846 5842 5839 5835 5833 5834 5833 5831 5828 5822 5817 5812 5809 5806 5803 5800 5797 5794 5791 5790 5792 5792 5791 5790 5787 5785 5784
5846 5840 5858 5870 5870 5864 5857 5848 5847 5860 5872 5862 5853 5849 5853 5857 5854 5852 5846 5842 5839 5835 5832 5829 5829 5828 5823 5817 5814 5810 5807 5804 5802 5800 5797 5795 5794 5793 5793 5792 5790 5788 5786 5784
5834 5849 5869 5863 5859 5856 5855 5851 5852 5851 5864 5867 5854 5838 5841 5850 5860 5858 5856 5852 5847 5840 5833 5828 5827 5827 5824 5819 5815 5813 5808 5805 5803 5801 5799 5797 5794 5792 5790 5788 5788 5788 5786 5784
5845 5863 5865 5855 5854 5858 5846 5866 5862 5855 5847 5842 5848 5817 5831 5838 5840 5847 5851 5851 5849 5846 5838 5832 5829 5827 5825 5822 5819 5815 5810 5806 5804 5802 5798 5794 5789 5785 5786 5787 5787 5786 5784 5782
5844 5861 5860 5852 5859 5865 5858 5871 5862 5856 5848 5842 5846 5826 5825 5839 5827 5835 5846 5851 5851 5849 5844 5837 5834 5831 5829 5826 5822 5816 5811 5807 5804 5802 5798 5794 5791 5789 5788 5788 5785 5783 5782 5780
5854 5873 5871 5865 5873 5875 5871 5862 5854 5850 5841 5818 5833 5822 5816 5832 5834 5838 5846 5850 5851 5852 5847 5842 5839 5835 5830 5828 5823 5817 5810 5805 5803 5800 5798 5794 5790 5788 5786 5784 5781 5780 5780 5779
5842 5859 5874 5877 5860 5866 5862 5837 5811 5804 5801 5803 5832 5824 5820 5843 5853 5849 5850 5852 5853 5852 5848 5842 5837 5833 5829 5826 5823 5819 5811 5806 5803 5800 5797 5794 5791 5788 5784 5783 5781 5778 5777 5775
5823 5830 5860 5869 5859 5849 5848 5838 5807 5790 5792 5806 5822 5815 5833 5859 5866 5864 5859 5857 5855 5852 5850 5845 5840 5835 5831 5828 5824 5819 5812 5807 5804 5800 5796 5794 5791 5788 5785 5783 5781 5779 5776 5775
5824 5827 5863 5871 5872 5861 5843 5840 5849 5828 5818 5805 5809 5822 5838 5855 5853 5856 5855 5852 5851 5850 5849 5846 5842 5838 5833 5829 5825 5820 5813 5807 5804 5800 5796 5793 5790 5786 5784 5783 5781 5778 5775 5774
5838 5823 5848 5865 5867 5865 5857 5851 5842 5823 5795 5786 5800 5808 5816 5827 5835 5842 5848 5848 5850 5848 5845 5845 5841 5839 5835 5831 5826 5821 5814 5807 5803 5800 5796 5792 5789 5786 5783 5781 5778 5775 5773 5771
5841 5820 5830 5845 5839 5838 5846 5842 5838 5830 5821 5797 5788 5801 5838 5834 5837 5841 5843 5848 5848 5846 5844 5842 5840 5838 5835 5831 5826 5819 5813 5807 5802 5798 5793 5790 5787 5784 5781 5778 5775 5773 5770 5768
5838 5825 5813 5829 5853 5860 5851 5843 5835 5812 5810 5816 5807 5809 5852 5846 5845 5844 5845 5848 5847 5845 5843 5840 5837 5834 5830 5827 5823 5817 5812 5806 5801 5797 5791 5787 5784 5781 5778 5775 5773 5771 5767 5765
5830 5814 5794 5803 5823 5839 5837 5841 5841 5835 5824 5814 5803 5805 5849 5844 5840 5840 5839 5842 5840 5838 5836 5834 5830 5826 5823 5820 5818 5814 5810 5805 5800 5795 5789 5784 5780 5777 5774 5772 5770 5767 5764 5761
5828 5810 5796 5784 5800 5820 5818 5828 5834 5826 5812 5806 5807 5810 5829 5831 5829 5831 5833 5833 5833 5832 5828 5825 5821 5818 5817 5815 5812 5808 5805 5802 5798 5792 5786 5780 5778 5775 5772 5769 5767 5765 5762 5758
5820 5800 5803 5808 5817 5819 5818 5820 5823 5816 5814 5806 5809 5812 5819 5827 5827 5829 5829 5826 5823 5820 5819 5816 5813 5810 5809 5808 5806 5803 5800 5797 5794 5788 5782 5778 5775 5773 5769 5766 5763 5761 5758 5756
5809 5795 5794 5793 5807 5809 5806 5813 5814 5814 5816 5814 5813 5810 5826 5828 5828 5824 5821 5817 5813 5811 5810 5810 5807 5804 5802 5801 5800 5797 5794 5792 5788 5783 5778 5775 5771 5767 5764 5761 5758 5756 5753 5751
5795 5785 5775 5776 5793 5792 5783 5802 5806 5808 5815 5813 5802 5809 5821 5814 5809 5811 5811 5809 5806 5805 5804 5802 5800 5798 5797 5796 5794 5791 5789 5786 5781 5776 5773 5770 5767 5762 5760 5758 5754 5750 5747 5745
5784 5776 5772 5769 5771 5754 5788 5819 5816 5808 5810 5816 5814 5813 5813 5807 5808 5812 5811 5805 5801 5799 5798 5797 5795 5794 5794 5793 5790 5786 5783 5778 5774 5770 5767 5765 5761 5757 5755 5751 5748 5745 5742 5739
5791 5773 5763 5761 5755 5763 5789 5808 5809 5798 5795 5813 5808 5807 5808 5809 5804 5800 5804 5802 5797 5796 5795 5794 5793 5791 5787 5784 5782 5778 5775 5771 5767 5763 5760 5759 5756 5752 5749 5745 5742 5740 5736 5733
5785 5777 5759 5753 5742 5743 5774 5803 5815 5801 5780 5804 5803 5798 5798 5794 5776 5778 5793 5793 5791 5790 5789 5787 5786 5783 5778 5776 5772 5768 5765 5762 5759 5757 5755 5753 5751 5746 5743 5740 5737 5734 5731 5727
5756 5755 5751 5747 5743 5757 5785 5799 5797 5763 5765 5792 5794 5790 5787 5780 5777 5781 5786 5783 5781 5780 5779 5778 5775 5772 5769 5767 5762 5757 5756 5754 5754 5752 5750 5747 5744 5741 5738 5734 5731 5727 5723 5720
5746 5742 5742 5744 5737 5744 5782 5782 5768 5765 5780 5785 5784 5782 5776 5774 5776 5775 5773 5771 5770 5768 5767 5766 5762 5760 5759 5758 5754 5748 5746 5748 5747 5744 5741 5738 5736 5734 5732 5726 5723 5720 5716 5712
5749 5747 5745 5747 5748 5765 5776 5774 5776 5778 5772 5774 5775 5774 5770 5764 5763 5764 5762 5760 5759 5758 5756 5755 5751 5748 5748 5747 5745 5740 5739 5739 5737 5734 5731 5729 5727 5725 5723 5718 5714 5711 5708 5704
5749 5756 5748 5745 5753 5761 5766 5769 5771 5771 5767 5769 5768 5766 5762 5756 5755 5754 5752 5750 5748 5747 5746 5744 5741 5737 5735 5735 5734 5732 5731 5730 5727 5723 5721 5719 5717 5715 5713 5711 5708 5704 5700 5696
5736 5742 5738 5736 5744 5750 5755 5757 5758 5760 5761 5760 5760 5759 5755 5751 5748 5745 5741 5739 5737 5736 5735 5733 5730 5727 5725 5724 5723 5723 5722 5719 5716 5714 5712 5711 5709 5707 5703 5700 5697 5695 5692 5690
5732 5730 5727 5727 5737 5736 5738 5748 5752 5749 5749 5750 5748 5747 5747 5744 5739 5736 5732 5730 5728 5725 5724 5722 5721 5718 5716 5715 5714 5713 5713 5710 5706 5703 5702 5702 5701 5698 5694 5690 5686 5682 5681 5678